INDEX

Satellite information

Favourite Embed

Satellite Type and Status

PAYLOADIN ORBIT

Key statistics

Satellite INDEX at a glance.

Uptime

7259

Days in orbit

Revolutions

≈ 15.1

Per day

Orbit

SSO

Sun Synchronous Orbit

Inclination

98.0

Latest

Satellite identification and parameters

Extended collection of information and parameters for INDEX.

Object identification

Identified? True

Debris? False

Object name: INDEX

International designator: 2005-031B

Object number (NORAD): 28810

Object ID (CCSDS): 28810

Country: JAPAN (JPN)

Current information (Y/N): Y

RCS size: MEDIUM

Orbital parameters

Period: 95.621 minutes

Inclination: 97.9902 deg

SMA: 6926.728 km

Apoapsis: 563.645 km

Periapsis: 533.54 km

RAAN: 293.651 deg

Eccentricy: 0.0021731

Argument of periapsis: 192.6416 deg

Mean anomaly: 167.4268 deg

Mean motion: 15.0595013 rev/day

Mean motion (dot): 0.0000316 rev/day2

B* drag term: 0.00022069 1/REarth

Two-line elements (TLE)

Creation date: July 7, 2025, 10:26 p.m.

Reference frame: TEME

Reference center: EARTH

Epoch: July 7, 2025, 8:53 p.m. UTC

TLE line 0: 0 INDEX

TLE line 1: 1 28810U 05031B 25188.87042003 .00003160 00000-0 22069-3 0 9998

TLE line 2: 2 28810 97.9902 293.6510 0021731 192.6416 167.4268 15.05950130 79117

Live tracking on map

Real-time ground track for satellite INDEX.

In-orbit conjunctions

There are no conjunctions computed for INDEX, at the moment. Check back to stay up to date, as we update our databases every day.

Go to all conjunctions

Associated space launch

The Optical Inter-orbit Communications Engineering Test Satellite (OICETS), also called Kirari, was an experimental satellite launched by JAXA to demonstrate interorbital communication between satellites through optical (laser) means.

INDEX was lifted into orbit during the mission ‘Dnepr | Kirari’, on board a Dnepr space rocket.

The launch took place on Aug. 23, 2005, 9:09 p.m. from 109/95.

For more information about the launch, click the button.

Launch to space Dnepr | Kirari
Dnepr | Kirari

Agency: N/A

Status: Launch Successful

Launch date: Aug. 23, 2005, 9:09 p.m. UTC

Rocket: Dnepr

Launch pad: 109/95

Location: Baikonur Cosmodrome, Republic of Kazakhstan

...

Latest news about this satellite

There are no fresh news available about this satellite. Check back as we update our databases every day.


Newsletter sign-up

Weekly statistics, charts and insights to help you stay on top of the space industry.